Weather History for Ionia, MI

Change the Weather History Date:

Saturday, March 30, 2013

  Actual Average (KGRR) Record (KGRR)
Temperature  
Mean Temperature 40 °F 41 °F  
Max Temperature 55 °F 51 °F 76 °F (1910)
Min Temperature 26 °F 32 °F 1 °F (1954)
Degree Days  
Heating Degree Days 24 24  
Month to date heating degree days 887  
Since 1 July heating degree days 5664  
Cooling Degree Days 0 0  
Month to date cooling degree days 0  
Year to date cooling degree days 0  
Moisture  
Dew Point 27 °F    
Average Humidity 63    
Maximum Humidity 99    
Minimum Humidity 26    
Precipitation  
Precipitation 0.00 in 0.09 in 1.21 in (1974)
Month to date precipitation 2.28  
Year to date precipitation 6.16  
Snow  
Snow 0.00 in 0.20 in 3.00 in (1928)
Month to date snowfall 8.2  
Since 1 July snowfall 73.0  
Snow Depth -    
Sea Level Pressure  
Sea Level Pressure 30.08 in    
Wind  
Wind Speed 6 mph (SW)    
Max Wind Speed 13 mph    
Max Gust Speed 18 mph    
Visibility 9 miles    
Events      
T = Trace of Precipitation, MM = Missing Value Source: NWS Daily Summary

Daily Weather History Graph

Daily Weather History Graph

Search for Another Location

Airport:

Trip Planner

Search our weather history database for the weather conditions in past years. The results will help you decide how hot, cold, wet, or windy it might be!

Date:

Astronomy

Mar. 30, 2013 Rise Set
Actual Time 7:25 AM EDT 8:04 PM EDT
Civil Twilight 6:56 AM EDT 8:33 PM EDT
Nautical Twilight 6:23 AM EDT 9:06 PM EDT
Astronomical Twilight 5:48 AM EDT 9:42 PM EDT
Moon No Moon Rise 9:14 AM EDT (3/30)
Length of Visible Light 13h 36m
Length of Day
12h 39m
Waning Gibbous, 86% of the Moon is Illuminated
Mar 30
Waning Gibbous
Apr 3
Last Quarter
Apr 10
New
Apr 18
First Quarter
Apr 25
Full

Hourly Weather History & Observations

Time (EDT) Temp. Windchill Dew Point Humidity Pressure Visibility Wind Dir Wind Speed Gust Speed Precip Events Conditions
12:14 AM 36.5 °F 32.7 °F 23.9 °F 60% 30.21 in 10.0 mi WNW 4.6 mph - N/A   Clear
12:34 AM 34.2 °F 30.0 °F 23.9 °F 66% 30.20 in 10.0 mi West 4.6 mph - N/A   Clear
12:54 AM 33.4 °F 29.1 °F 25.2 °F 72% 30.20 in 10.0 mi West 4.6 mph - N/A   Clear
1:14 AM 32.9 °F 29.8 °F 24.4 °F 71% 30.20 in 10.0 mi West 3.5 mph - N/A   Clear
1:34 AM 32.9 °F 27.5 °F 24.3 °F 71% 30.21 in 10.0 mi West 5.8 mph - N/A   Clear
1:54 AM 32.0 °F 27.5 °F 24.8 °F 75% 30.21 in 10.0 mi West 4.6 mph - N/A   Clear
2:14 AM 32.0 °F 27.5 °F 25.5 °F 77% 30.21 in 10.0 mi West 4.6 mph - N/A   Clear
2:34 AM 30.9 °F 25.2 °F 25.3 °F 80% 30.21 in 10.0 mi West 5.8 mph - N/A   Clear
2:54 AM 31.6 °F 27.0 °F 26.8 °F 82% 30.20 in 10.0 mi West 4.6 mph - N/A   Clear
3:14 AM 31.3 °F 26.6 °F 26.6 °F 83% 30.20 in 10.0 mi West 4.6 mph - N/A   Clear
3:34 AM 30.2 °F 25.4 °F 26.6 °F 86% 30.19 in 10.0 mi West 4.6 mph - N/A   Clear
3:54 AM 30.2 °F 25.4 °F 27.5 °F 90% 30.20 in 10.0 mi West 4.6 mph - N/A   Clear
4:14 AM 29.3 °F 23.2 °F 27.3 °F 92% 30.19 in 7.0 mi West 5.8 mph - N/A   Clear
4:34 AM 29.7 °F 23.7 °F 28.0 °F 94% 30.19 in 7.0 mi West 5.8 mph - N/A   Clear
4:54 AM 30.0 °F 23.2 °F 28.4 °F 94% 30.19 in 7.0 mi West 6.9 mph - N/A   Clear
5:14 AM 29.3 °F 25.6 °F 27.7 °F 94% 30.19 in 5.0 mi West 3.5 mph - N/A   Clear
5:34 AM 28.9 °F 25.2 °F 27.9 °F 96% 30.18 in 5.0 mi WNW 3.5 mph - N/A   Clear
5:54 AM 28.4 °F - 27.7 °F 97% 30.18 in 4.0 mi Calm Calm - N/A   Clear
6:14 AM 28.2 °F - 27.7 °F 98% 30.18 in 2.5 mi Calm Calm - N/A   Clear
6:34 AM 28.0 °F 21.7 °F 27.9 °F 99% 30.18 in 3.0 mi WSW 5.8 mph - N/A   Clear
6:54 AM 27.5 °F 22.2 °F 27.3 °F 99% 30.19 in 2.5 mi WSW 4.6 mph - N/A   Clear
7:14 AM 26.4 °F 19.8 °F 26.2 °F 99% 30.19 in 3.0 mi WSW 5.8 mph - N/A   Clear
7:34 AM 27.5 °F 22.2 °F 27.3 °F 99% 30.19 in 2.5 mi WSW 4.6 mph - N/A   Clear
7:54 AM 27.7 °F 23.8 °F 27.5 °F 99% 30.19 in 2.5 mi WSW 3.5 mph - N/A   Clear
8:14 AM 28.4 °F 23.3 °F 27.9 °F 98% 30.19 in 3.0 mi WSW 4.6 mph - N/A   Clear
8:34 AM 30.7 °F 26.0 °F 29.8 °F 96% 30.18 in 4.0 mi West 4.6 mph - N/A   Clear
8:54 AM 31.8 °F 28.5 °F 30.2 °F 94% 30.18 in 5.0 mi WSW 3.5 mph - N/A   Clear
9:14 AM 32.0 °F - 29.3 °F 90% 30.17 in 7.0 mi Calm Calm - N/A   Clear
9:34 AM 33.1 °F - 29.5 °F 87% 30.17 in 10.0 mi Calm Calm - N/A   Clear
9:54 AM 34.5 °F - 29.7 °F 82% 30.16 in 10.0 mi Calm Calm - N/A   Clear
10:14 AM 35.4 °F - 29.8 °F 80% 30.16 in 10.0 mi Calm Calm - N/A   Clear
10:34 AM 37.0 °F - 29.1 °F 73% 30.15 in 10.0 mi Calm Calm - N/A   Clear
10:54 AM 38.8 °F 35.4 °F 29.7 °F 70% 30.14 in 10.0 mi South 4.6 mph - N/A   Clear
11:14 AM 40.8 °F 36.9 °F 27.1 °F 58% 30.14 in 10.0 mi SSW 5.8 mph - N/A   Clear
11:34 AM 42.3 °F 37.3 °F 26.4 °F 54% 30.14 in 10.0 mi SSW 8.1 mph - N/A   Clear
11:54 AM 43.2 °F 39.0 °F 26.2 °F 51% 30.13 in 10.0 mi SW 6.9 mph - N/A   Clear
12:14 PM 44.4 °F 39.5 °F 24.8 °F 46% 30.12 in 10.0 mi South 9.2 mph - N/A   Clear
12:34 PM 45.1 °F 39.9 °F 23.7 °F 43% 30.12 in 10.0 mi South 10.4 mph - N/A   Clear
12:54 PM 47.3 °F - 24.4 °F 41% 30.12 in 10.0 mi SSW 11.5 mph - N/A   Clear
1:14 PM 47.8 °F - 22.6 °F 37% 30.11 in 10.0 mi WSW 10.4 mph - N/A   Clear
1:34 PM 48.7 °F - 21.6 °F 34% 30.09 in 10.0 mi WSW 8.1 mph - N/A   Clear
1:54 PM 49.5 °F - 20.8 °F 32% 30.08 in 10.0 mi SW 10.4 mph - N/A   Clear
2:14 PM 50.5 °F - 21.0 °F 31% 30.07 in 10.0 mi SSW 10.4 mph 16.1 mph N/A   Clear
2:34 PM 51.4 °F - 20.1 °F 29% 30.06 in 10.0 mi SW 9.2 mph 16.1 mph N/A   Clear
2:54 PM 52.9 °F - 20.7 °F 28% 30.05 in 10.0 mi SSW 10.4 mph - N/A   Clear
3:14 PM 53.1 °F - 20.8 °F 28% 30.04 in 10.0 mi WSW 10.4 mph - N/A   Clear
3:34 PM 54.5 °F - 21.9 °F 28% 30.03 in 10.0 mi WSW 12.7 mph 16.1 mph N/A   Clear
3:54 PM 54.1 °F - 19.6 °F 26% 30.02 in 10.0 mi WSW 10.4 mph - N/A   Clear
4:14 PM 54.5 °F - 19.9 °F 26% 30.00 in 10.0 mi WSW 11.5 mph - N/A   Clear
4:34 PM 54.7 °F - 21.0 °F 27% 29.99 in 10.0 mi SSW 8.1 mph - N/A   Clear
4:54 PM 55.2 °F - 22.6 °F 28% 29.98 in 10.0 mi SW 9.2 mph - N/A   Clear
5:14 PM 54.5 °F - 23.0 °F 29% 29.98 in 10.0 mi SSW 8.1 mph 18.4 mph N/A   Clear
5:34 PM 55.4 °F - 25.0 °F 31% 29.96 in 10.0 mi SSW 12.7 mph 16.1 mph N/A   Clear
5:54 PM 55.6 °F - 25.2 °F 31% 29.95 in 10.0 mi SSW 10.4 mph - N/A   Clear
6:14 PM 54.7 °F - 26.6 °F 34% 29.95 in 10.0 mi SSW 12.7 mph - N/A   Clear
6:34 PM 54.1 °F - 28.4 °F 37% 29.95 in 10.0 mi SSW 9.2 mph - N/A   Clear
6:54 PM 53.8 °F - 27.9 °F 37% 29.95 in 10.0 mi SSW 10.4 mph - N/A   Clear
7:14 PM 53.1 °F - 29.7 °F 41% 29.94 in 10.0 mi SSW 10.4 mph - N/A   Clear
7:34 PM 52.0 °F - 30.2 °F 43% 29.93 in 10.0 mi South 6.9 mph - N/A   Clear
7:54 PM 51.1 °F - 30.9 °F 46% 29.92 in 10.0 mi South 8.1 mph - N/A   Clear
8:14 PM 48.7 °F - 32.7 °F 54% 29.92 in 10.0 mi SSW 6.9 mph - N/A   Clear
8:34 PM 48.2 °F - 32.5 °F 55% 29.92 in 10.0 mi SSW 8.1 mph - N/A   Clear
8:54 PM 48.2 °F - 32.2 °F 54% 29.91 in 10.0 mi South 8.1 mph - N/A   Scattered Clouds
9:14 PM 48.4 °F - 32.0 °F 53% 29.91 in 10.0 mi South 8.1 mph - N/A   Clear
9:34 PM 47.5 °F - 32.9 °F 57% 29.91 in 10.0 mi South 8.1 mph - N/A   Clear
9:54 PM 46.8 °F - 33.1 °F 59% 29.91 in 10.0 mi South 6.9 mph - N/A   Scattered Clouds
10:14 PM 46.0 °F 41.9 °F 33.6 °F 62% 29.91 in 10.0 mi SSW 8.1 mph - N/A   Scattered Clouds
10:34 PM 46.4 °F 42.4 °F 33.8 °F 62% 29.90 in 10.0 mi SSW 8.1 mph - N/A   Mostly Cloudy
10:54 PM 46.2 °F 42.2 °F 33.8 °F 62% 29.90 in 10.0 mi SSW 8.1 mph - N/A   Mostly Cloudy
11:14 PM 46.2 °F 41.2 °F 33.8 °F 62% 29.89 in 10.0 mi SSW 10.4 mph - N/A   Overcast
11:34 PM 46.2 °F 41.2 °F 33.8 °F 62% 29.88 in 10.0 mi South 10.4 mph - N/A   Mostly Cloudy
11:54 PM 46.0 °F 41.4 °F 33.3 °F 61% 29.87 in 10.0 mi South 9.2 mph - N/A   Scattered Clouds